Location: Mentone
(34.5413°N, 85.5351°W)
Time: 01:13:00
(UTC-05:00)

Tiros 1 despin weight - All Passes

Search period start: 03 July 2015 00:00
Search period end: 13 July 2015 00:00
Orbit: 597 x 647 km, 48.2° (Epoch: 01 July)

Date Brightness Start Highest point End Pass type
(mag) Time Alt. Az. Time Alt. Az. Time Alt. Az.
03 Jul - 05:08:00 10° SSE 05:10:09 13° SE 05:12:32 10° E visible
03 Jul - 06:46:41 10° SW 06:51:24 88° SE 06:56:05 10° NE daylight
03 Jul - 08:29:44 10° WNW 08:33:33 24° NNW 08:37:18 10° NNE daylight
03 Jul - 10:13:54 10° NW 10:16:29 15° N 10:19:03 10° NNE daylight
03 Jul - 11:55:50 10° NNW 11:59:27 22° NNE 12:03:04 10° ENE daylight
03 Jul - 13:37:03 10° NW 13:41:38 87° NE 13:46:06 10° SE daylight
03 Jul - 15:20:35 10° W 15:22:49 13° SW 15:24:51 10° SSW daylight
04 Jul - 05:23:50 10° SSW 05:27:52 29° SE 05:31:57 10° ENE daylight
04 Jul - 07:04:52 10° WSW 07:09:25 48° NNW 07:13:57 10° NE daylight
04 Jul - 08:48:45 10° WNW 08:51:57 18° NNW 08:55:05 10° NNE daylight
04 Jul - 10:32:14 10° NNW 10:35:01 16° N 10:37:49 10° NE daylight
04 Jul - 12:13:33 10° NW 12:17:45 34° NNE 12:21:53 10° E daylight
04 Jul - 13:55:10 10° WNW 13:59:29 44° SW 14:03:43 10° SSE daylight
05 Jul - 05:41:02 10° SW 05:45:40 62° SE 05:50:19 10° ENE daylight
05 Jul - 07:23:29 10° W 07:27:37 29° NNW 07:31:41 10° NE daylight
05 Jul - 09:07:44 10° NW 09:10:27 15° N 09:13:08 10° NNE daylight
05 Jul - 10:50:09 10° NNW 10:53:29 19° NNE 10:56:50 10° ENE daylight
05 Jul - 12:31:20 10° NW 12:35:52 62° NE 12:40:19 10° ESE daylight
05 Jul - 14:13:51 10° W 14:17:13 20° SW 14:20:27 10° S daylight
06 Jul - 04:18:51 10° S 04:22:13 20° SE 04:25:43 10° E visible
06 Jul - 05:58:55 10° WSW 06:03:36 66° NW 06:08:16 10° NE daylight
06 Jul - 07:42:25 10° WNW 07:45:57 20° NNW 07:49:25 10° NNE daylight
06 Jul - 09:26:19 10° NNW 09:28:59 15° N 09:31:39 10° NE daylight
06 Jul - 11:07:54 10° NW 11:11:51 27° NNE 11:15:47 10° E daylight
06 Jul - 12:49:16 10° WNW 12:53:49 65° SW 12:58:15 10° SE daylight
07 Jul - 04:35:32 10° SSW 04:39:58 43° SE 04:44:25 10° ENE visible
07 Jul - 06:17:19 10° W 06:21:42 37° NNW 06:26:03 10° NE daylight
07 Jul - 08:01:28 10° NW 08:04:24 16° N 08:07:19 10° NNE daylight
07 Jul - 09:44:25 10° NNW 09:47:29 17° NNE 09:50:34 10° NE daylight
07 Jul - 11:25:37 10° NW 11:30:03 45° NNE 11:34:25 10° ESE daylight
07 Jul - 13:07:36 10° WNW 13:11:35 30° SW 13:15:29 10° SSE daylight
08 Jul - 03:14:23 10° SSE 03:16:35 14° SE 03:18:59 10° E visible
08 Jul - 04:53:06 10° SW 04:57:49 89° SSE 05:02:32 10° NE visible
08 Jul - 06:36:07 10° WNW 06:39:58 24° NNW 06:43:46 10° NNE daylight
08 Jul - 08:20:16 10° NW 08:22:56 15° N 08:25:35 10° NE daylight
08 Jul - 10:02:13 10° NNW 10:05:55 23° NNE 10:09:35 10° ENE daylight
08 Jul - 11:43:27 10° NW 11:48:06 87° NE 11:52:37 10° SE daylight
08 Jul - 13:26:59 10° W 13:29:17 13° SW 13:31:22 10° SSW daylight
09 Jul - 03:30:14 10° SSW 03:34:17 29° SE 03:38:23 10° ENE visible
09 Jul - 05:11:16 10° WSW 05:15:50 48° NNW 05:20:24 10° NE daylight
09 Jul - 06:55:08 10° WNW 06:58:23 18° NNW 07:01:34 10° NNE daylight
09 Jul - 08:38:36 10° NNW 08:41:27 16° N 08:44:20 10° NE daylight
09 Jul - 10:19:57 10° NW 10:24:12 35° NNE 10:28:24 10° E daylight
09 Jul - 12:01:34 10° WNW 12:05:56 44° SW 12:10:13 10° SSE daylight
10 Jul - 03:47:25 10° SW 03:52:04 63° SE 03:56:44 10° ENE visible
10 Jul - 05:29:52 10° W 05:34:01 29° NNW 05:38:07 10° NE daylight
10 Jul - 07:14:05 10° NW 07:16:52 15° N 07:19:37 10° NNE daylight
10 Jul - 08:56:31 10° NNW 08:59:55 20° NNE 09:03:20 10° ENE daylight
10 Jul - 10:37:42 10° NW 10:42:18 63° NE 10:46:49 10° ESE daylight
10 Jul - 12:20:15 10° W 12:23:40 20° SW 12:26:56 10° S daylight
11 Jul - 02:25:14 10° S 02:28:37 20° SE 02:32:07 10° E visible
11 Jul - 04:05:18 10° WSW 04:10:00 66° NW 04:14:41 10° NE visible
11 Jul - 05:48:48 10° WNW 05:52:21 20° NNW 05:55:52 10° NNE daylight
11 Jul - 07:32:39 10° NNW 07:35:23 15° N 07:38:08 10° NE daylight
11 Jul - 09:14:15 10° NW 09:18:16 28° NNE 09:22:16 10° E daylight
11 Jul - 10:55:39 10° WNW 11:00:15 65° SW 11:04:43 10° SE daylight
12 Jul - 02:41:55 10° SSW 02:46:21 43° SE 02:50:49 10° ENE visible
12 Jul - 04:23:42 10° W 04:28:05 37° NNW 04:32:28 10° NE visible
12 Jul - 06:07:49 10° NW 06:10:49 16° N 06:13:45 10° NNE daylight
12 Jul - 07:50:46 10° NNW 07:53:54 18° NNE 07:57:03 10° NE daylight
12 Jul - 09:31:59 10° NW 09:36:29 46° NNE 09:40:54 10° ESE daylight
12 Jul - 11:13:59 10° WNW 11:18:01 30° SW 11:21:57 10° SSE daylight
